iso_date,epoch_date,Year,Hour,Min,DOY,POS_DOY,Lat,Lon,BP,Ts,Ta,has_bp,has_ts,has_ta,BuoyID,Buoy_Type,Buoy_Owner,Logistics,Hemisphere
2018-08-04T04:59:31Z,1533358771,2018,5,0,216.208,216.208,69.137,-24.4814,1012.3,4.21,-999.0,yes,yes,no,300234065580660,BD2GI,AOML,DNR,North
2018-08-04T06:00:00Z,1533362400,2018,6,0,216.25,216.25,69.1564,-24.4774,1012.4,4.04,-999.0,yes,yes,no,300234065580660,BD2GI,AOML,DNR,North
2018-08-04T07:00:28Z,1533366029,2018,7,0,216.292,216.292,69.1722,-24.4784,1012.7,3.87,-999.0,yes,yes,no,300234065580660,BD2GI,AOML,DNR,North
2018-08-04T07:59:31Z,1533369571,2018,8,0,216.333,216.333,69.1834,-24.4852,1013.0,3.83,-999.0,yes,yes,no,300234065580660,BD2GI,AOML,DNR,North
2018-08-04T09:00:00Z,1533373200,2018,9,0,216.375,216.375,69.191,-24.495,1013.2,3.97,-999.0,yes,yes,no,300234065580660,BD2GI,AOML,DNR,North
2018-08-04T10:00:28Z,1533376829,2018,10,0,216.417,216.417,69.196,-24.5024,1013.4,4.01,-999.0,yes,yes,no,300234065580660,BD2GI,AOML,DNR,North
2018-08-04T10:59:31Z,1533380371,2018,11,0,216.458,216.458,69.2,-24.5148,1013.6,4.11,-999.0,yes,yes,no,300234065580660,BD2GI,AOML,DNR,North
2018-08-04T12:00:00Z,1533384000,2018,12,0,216.5,216.5,69.2054,-24.532,1013.8,4.11,-999.0,yes,yes,no,300234065580660,BD2GI,AOML,DNR,North
2018-08-04T13:00:28Z,1533387629,2018,13,0,216.542,216.542,69.2106,-24.548,1013.7,4.25,-999.0,yes,yes,no,300234065580660,BD2GI,AOML,DNR,North
2018-08-04T13:59:31Z,1533391171,2018,14,0,216.583,216.583,69.2158,-24.5642,1013.8,4.83,-999.0,yes,yes,no,300234065580660,BD2GI,AOML,DNR,North
2018-08-04T15:00:00Z,1533394800,2018,15,0,216.625,216.625,69.219,-24.5736,1013.5,5.03,-999.0,yes,yes,no,300234065580660,BD2GI,AOML,DNR,North
2018-08-04T16:00:28Z,1533398429,2018,16,0,216.667,216.667,69.2196,-24.584,1013.5,5.13,-999.0,yes,yes,no,300234065580660,BD2GI,AOML,DNR,North
2018-08-04T16:59:31Z,1533401971,2018,17,0,216.708,216.708,69.218,-24.5974,1013.5,5.03,-999.0,yes,yes,no,300234065580660,BD2GI,AOML,DNR,North
2018-08-04T18:00:00Z,1533405600,2018,18,0,216.75,216.75,69.2162,-24.615,1013.5,5.07,-999.0,yes,yes,no,300234065580660,BD2GI,AOML,DNR,North
2018-08-04T19:00:28Z,1533409229,2018,19,0,216.792,216.792,69.2138,-24.6352,1013.7,5.13,-999.0,yes,yes,no,300234065580660,BD2GI,AOML,DNR,North
2018-08-04T19:59:31Z,1533412771,2018,20,0,216.833,216.833,69.2094,-24.6574,1013.9,5.13,-999.0,yes,yes,no,300234065580660,BD2GI,AOML,DNR,North
2018-08-04T21:00:00Z,1533416400,2018,21,0,216.875,216.875,69.207,-24.6852,1014.1,5.13,-999.0,yes,yes,no,300234065580660,BD2GI,AOML,DNR,North
2018-08-04T22:00:28Z,1533420029,2018,22,0,216.917,216.917,69.2062,-24.7074,1014.2,5.07,-999.0,yes,yes,no,300234065580660,BD2GI,AOML,DNR,North
2018-08-04T22:59:31Z,1533423571,2018,23,0,216.958,216.958,69.2036,-24.7252,1014.3,4.96,-999.0,yes,yes,no,300234065580660,BD2GI,AOML,DNR,North
2018-08-05T00:00:00Z,1533427200,2018,0,0,217.0,217.0,69.2004,-24.7398,1014.3,4.86,-999.0,yes,yes,no,300234065580660,BD2GI,AOML,DNR,North
2018-08-05T01:00:28Z,1533430829,2018,1,0,217.042,217.042,69.1972,-24.7508,1014.2,4.72,-999.0,yes,yes,no,300234065580660,BD2GI,AOML,DNR,North
2018-08-05T01:59:31Z,1533434371,2018,2,0,217.083,217.083,69.1938,-24.7638,1014.2,4.69,-999.0,yes,yes,no,300234065580660,BD2GI,AOML,DNR,North
2018-08-05T03:00:00Z,1533438000,2018,3,0,217.125,217.125,69.1904,-24.7784,1014.0,4.66,-999.0,yes,yes,no,300234065580660,BD2GI,AOML,DNR,North
2018-08-05T04:00:28Z,1533441629,2018,4,0,217.167,217.167,69.1872,-24.7936,1013.9,4.42,-999.0,yes,yes,no,300234065580660,BD2GI,AOML,DNR,North
2018-08-05T04:59:31Z,1533445171,2018,5,0,217.208,217.208,69.185,-24.8128,1013.9,4.35,-999.0,yes,yes,no,300234065580660,BD2GI,AOML,DNR,North
2018-08-05T06:00:00Z,1533448800,2018,6,0,217.25,217.25,69.1832,-24.8302,1014.1,4.31,-999.0,yes,yes,no,300234065580660,BD2GI,AOML,DNR,North
2018-08-05T07:00:28Z,1533452429,2018,7,0,217.292,217.292,69.1816,-24.8456,1014.2,4.38,-999.0,yes,yes,no,300234065580660,BD2GI,AOML,DNR,North
2018-08-05T07:59:31Z,1533455971,2018,8,0,217.333,217.333,69.1786,-24.861,1014.3,4.52,-999.0,yes,yes,no,300234065580660,BD2GI,AOML,DNR,North
2018-08-05T09:00:00Z,1533459600,2018,9,0,217.375,217.375,69.1746,-24.877,1014.4,4.59,-999.0,yes,yes,no,300234065580660,BD2GI,AOML,DNR,North
2018-08-05T10:00:28Z,1533463229,2018,10,0,217.417,217.417,69.1714,-24.8926,1014.7,4.66,-999.0,yes,yes,no,300234065580660,BD2GI,AOML,DNR,North
2018-08-05T10:59:31Z,1533466771,2018,11,0,217.458,217.458,69.1694,-24.907,1015.5,4.72,-999.0,yes,yes,no,300234065580660,BD2GI,AOML,DNR,North
2018-08-05T12:00:00Z,1533470400,2018,12,0,217.5,217.5,69.1674,-24.9152,1016.1,4.96,-999.0,yes,yes,no,300234065580660,BD2GI,AOML,DNR,North
2018-08-05T13:00:28Z,1533474029,2018,13,0,217.542,217.542,69.1646,-24.9242,1016.7,5.07,-999.0,yes,yes,no,300234065580660,BD2GI,AOML,DNR,North
2018-08-05T13:59:31Z,1533477571,2018,14,0,217.583,217.583,69.1624,-24.9338,1016.6,4.48,-999.0,yes,yes,no,300234065580660,BD2GI,AOML,DNR,North
2018-08-05T15:00:00Z,1533481200,2018,15,0,217.625,217.625,69.1596,-24.9404,1016.8,4.83,-999.0,yes,yes,no,300234065580660,BD2GI,AOML,DNR,North
2018-08-05T16:00:28Z,1533484829,2018,16,0,217.667,217.667,69.1576,-24.947,1016.6,5.27,-999.0,yes,yes,no,300234065580660,BD2GI,AOML,DNR,North
2018-08-05T16:59:31Z,1533488371,2018,17,0,217.708,217.708,69.1558,-24.9532,1016.5,5.27,-999.0,yes,yes,no,300234065580660,BD2GI,AOML,DNR,North
2018-08-05T18:00:00Z,1533492000,2018,18,0,217.75,217.75,69.153,-24.9606,1016.5,4.14,-999.0,yes,yes,no,300234065580660,BD2GI,AOML,DNR,North
2018-08-05T19:00:28Z,1533495629,2018,19,0,217.792,217.792,69.1492,-24.9666,1016.5,5.24,-999.0,yes,yes,no,300234065580660,BD2GI,AOML,DNR,North
2018-08-05T19:59:31Z,1533499171,2018,20,0,217.833,217.833,69.1454,-24.9706,1016.7,3.53,-999.0,yes,yes,no,300234065580660,BD2GI,AOML,DNR,North
2018-08-05T21:00:00Z,1533502800,2018,21,0,217.875,217.875,69.1432,-24.977,1016.6,3.9,-999.0,yes,yes,no,300234065580660,BD2GI,AOML,DNR,North
2018-08-05T22:00:28Z,1533506429,2018,22,0,217.917,217.917,69.1424,-24.9806,1016.8,3.25,-999.0,yes,yes,no,300234065580660,BD2GI,AOML,DNR,North
2018-08-05T22:59:31Z,1533509971,2018,23,0,217.958,217.958,69.1428,-24.983,1016.8,4.07,-999.0,yes,yes,no,300234065580660,BD2GI,AOML,DNR,North
2018-08-06T00:00:00Z,1533513600,2018,0,0,218.0,218.0,69.1426,-24.9812,1017.2,3.83,-999.0,yes,yes,no,300234065580660,BD2GI,AOML,DNR,North
2018-08-06T01:00:28Z,1533517229,2018,1,0,218.042,218.042,69.1452,-24.9818,1017.0,3.15,-999.0,yes,yes,no,300234065580660,BD2GI,AOML,DNR,North
2018-08-06T01:59:31Z,1533520771,2018,2,0,218.083,218.083,69.145,-24.982,1016.8,3.46,-999.0,yes,yes,no,300234065580660,BD2GI,AOML,DNR,North
2018-08-06T03:00:00Z,1533524400,2018,3,0,218.125,218.125,69.149,-24.9772,1016.5,3.32,-999.0,yes,yes,no,300234065580660,BD2GI,AOML,DNR,North
2018-08-06T04:00:28Z,1533528029,2018,4,0,218.167,218.167,69.152,-24.9706,1017.0,2.88,-999.0,yes,yes,no,300234065580660,BD2GI,AOML,DNR,North
2018-08-06T04:59:31Z,1533531571,2018,5,0,218.208,218.208,69.1544,-24.9664,1017.2,3.25,-999.0,yes,yes,no,300234065580660,BD2GI,AOML,DNR,North
2018-08-06T06:00:00Z,1533535200,2018,6,0,218.25,218.25,69.1564,-24.9634,1017.2,3.6,-999.0,yes,yes,no,300234065580660,BD2GI,AOML,DNR,North
2018-08-06T07:00:28Z,1533538829,2018,7,0,218.292,218.292,69.1572,-24.9602,1016.8,3.46,-999.0,yes,yes,no,300234065580660,BD2GI,AOML,DNR,North
2018-08-06T07:59:31Z,1533542371,2018,8,0,218.333,218.333,69.1586,-24.9558,1016.7,3.53,-999.0,yes,yes,no,300234065580660,BD2GI,AOML,DNR,North
2018-08-06T09:00:00Z,1533546000,2018,9,0,218.375,218.375,69.1578,-24.953,1017.0,3.56,-999.0,yes,yes,no,300234065580660,BD2GI,AOML,DNR,North
2018-08-06T10:00:28Z,1533549629,2018,10,0,218.417,218.417,69.1558,-24.9536,1017.4,3.87,-999.0,yes,yes,no,300234065580660,BD2GI,AOML,DNR,North
2018-08-06T10:59:31Z,1533553171,2018,11,0,218.458,218.458,69.1524,-24.9564,1017.4,3.49,-999.0,yes,yes,no,300234065580660,BD2GI,AOML,DNR,North
2018-08-06T12:00:00Z,1533556800,2018,12,0,218.5,218.5,69.149,-24.959,1017.7,2.33,-999.0,yes,yes,no,300234065580660,BD2GI,AOML,DNR,North
2018-08-06T13:00:28Z,1533560429,2018,13,0,218.542,218.542,69.1462,-24.9594,1017.7,2.81,-999.0,yes,yes,no,300234065580660,BD2GI,AOML,DNR,North
2018-08-06T13:59:31Z,1533563971,2018,14,0,218.583,218.583,69.1426,-24.9608,1017.6,2.64,-999.0,yes,yes,no,300234065580660,BD2GI,AOML,DNR,North
2018-08-06T15:00:00Z,1533567600,2018,15,0,218.625,218.625,69.1388,-24.9632,1017.4,2.64,-999.0,yes,yes,no,300234065580660,BD2GI,AOML,DNR,North
2018-08-06T16:00:28Z,1533571229,2018,16,0,218.667,218.667,69.1366,-24.9672,1017.2,2.33,-999.0,yes,yes,no,300234065580660,BD2GI,AOML,DNR,North
2018-08-06T16:59:31Z,1533574771,2018,17,0,218.708,218.708,69.1354,-24.971,1016.9,2.77,-999.0,yes,yes,no,300234065580660,BD2GI,AOML,DNR,North
2018-08-06T18:00:00Z,1533578400,2018,18,0,218.75,218.75,69.1334,-24.9746,1016.8,3.05,-999.0,yes,yes,no,300234065580660,BD2GI,AOML,DNR,North
2018-08-06T19:00:28Z,1533582029,2018,19,0,218.792,218.792,69.1312,-24.9764,1017.1,2.88,-999.0,yes,yes,no,300234065580660,BD2GI,AOML,DNR,North
2018-08-06T19:59:31Z,1533585571,2018,20,0,218.833,218.833,69.1288,-24.9836,1017.1,3.05,-999.0,yes,yes,no,300234065580660,BD2GI,AOML,DNR,North
2018-08-06T21:00:00Z,1533589200,2018,21,0,218.875,218.875,69.1244,-24.9908,1017.3,2.71,-999.0,yes,yes,no,300234065580660,BD2GI,AOML,DNR,North
2018-08-06T22:00:28Z,1533592829,2018,22,0,218.917,218.917,69.12,-25.0002,1017.6,3.01,-999.0,yes,yes,no,300234065580660,BD2GI,AOML,DNR,North
2018-08-06T22:59:31Z,1533596371,2018,23,0,218.958,218.958,69.1172,-25.0082,1017.6,3.19,-999.0,yes,yes,no,300234065580660,BD2GI,AOML,DNR,North
2018-08-07T00:00:00Z,1533600000,2018,0,0,219.0,219.0,69.1168,-25.0162,1017.4,3.25,-999.0,yes,yes,no,300234065580660,BD2GI,AOML,DNR,North
2018-08-07T01:00:28Z,1533603629,2018,1,0,219.042,219.042,69.118,-25.0194,1017.3,3.15,-999.0,yes,yes,no,300234065580660,BD2GI,AOML,DNR,North
2018-08-07T01:59:31Z,1533607171,2018,2,0,219.083,219.083,69.1198,-25.021,1016.7,3.08,-999.0,yes,yes,no,300234065580660,BD2GI,AOML,DNR,North
2018-08-07T03:00:00Z,1533610800,2018,3,0,219.125,219.125,69.121,-25.0184,1016.4,3.25,-999.0,yes,yes,no,300234065580660,BD2GI,AOML,DNR,North
2018-08-07T04:00:28Z,1533614429,2018,4,0,219.167,219.167,69.1222,-25.014,1016.3,3.15,-999.0,yes,yes,no,300234065580660,BD2GI,AOML,DNR,North
2018-08-07T04:59:31Z,1533617971,2018,5,0,219.208,219.208,69.1228,-25.0106,1016.2,3.42,-999.0,yes,yes,no,300234065580660,BD2GI,AOML,DNR,North
2018-08-07T06:00:00Z,1533621600,2018,6,0,219.25,219.25,69.112,-24.9854,1016.1,2.36,-999.0,yes,yes,no,300234065580660,BD2GI,AOML,DNR,North
2018-08-07T07:00:28Z,1533625229,2018,7,0,219.292,219.292,69.1226,-25.0032,1015.9,1.44,-999.0,yes,yes,no,300234065580660,BD2GI,AOML,DNR,North
2018-08-07T07:59:31Z,1533628771,2018,8,0,219.333,219.333,69.1224,-25.0024,1015.8,2.98,-999.0,yes,yes,no,300234065580660,BD2GI,AOML,DNR,North
2018-08-07T09:00:00Z,1533632400,2018,9,0,219.375,219.375,69.1214,-25.0044,1015.6,3.32,-999.0,yes,yes,no,300234065580660,BD2GI,AOML,DNR,North
2018-08-07T10:00:28Z,1533636029,2018,10,0,219.417,219.417,69.1204,-25.0086,1015.5,3.63,-999.0,yes,yes,no,300234065580660,BD2GI,AOML,DNR,North
2018-08-07T10:59:31Z,1533639571,2018,11,0,219.458,219.458,69.12,-25.0148,1015.3,3.83,-999.0,yes,yes,no,300234065580660,BD2GI,AOML,DNR,North
2018-08-07T12:00:00Z,1533643200,2018,12,0,219.5,219.5,69.1202,-25.0204,1015.3,3.73,-999.0,yes,yes,no,300234065580660,BD2GI,AOML,DNR,North
2018-08-07T13:00:28Z,1533646829,2018,13,0,219.542,219.542,69.1214,-25.0226,1014.6,3.73,-999.0,yes,yes,no,300234065580660,BD2GI,AOML,DNR,North
2018-08-07T13:59:31Z,1533650371,2018,14,0,219.583,219.583,69.1224,-25.0214,1014.0,3.49,-999.0,yes,yes,no,300234065580660,BD2GI,AOML,DNR,North
2018-08-07T15:00:00Z,1533654000,2018,15,0,219.625,219.625,69.1226,-25.018,1013.6,3.32,-999.0,yes,yes,no,300234065580660,BD2GI,AOML,DNR,North
2018-08-07T16:00:28Z,1533657629,2018,16,0,219.667,219.667,69.1212,-25.0142,1012.9,3.42,-999.0,yes,yes,no,300234065580660,BD2GI,AOML,DNR,North
2018-08-07T16:59:31Z,1533661171,2018,17,0,219.708,219.708,69.12,-25.0128,1012.2,3.73,-999.0,yes,yes,no,300234065580660,BD2GI,AOML,DNR,North
2018-08-07T18:00:00Z,1533664800,2018,18,0,219.75,219.75,69.12,-25.013,1011.8,3.9,-999.0,yes,yes,no,300234065580660,BD2GI,AOML,DNR,North
2018-08-07T19:00:28Z,1533668429,2018,19,0,219.792,219.792,69.1206,-25.0126,1011.6,4.01,-999.0,yes,yes,no,300234065580660,BD2GI,AOML,DNR,North
2018-08-07T19:59:31Z,1533671971,2018,20,0,219.833,219.833,69.1204,-25.0126,1011.1,3.8,-999.0,yes,yes,no,300234065580660,BD2GI,AOML,DNR,North
2018-08-07T21:00:00Z,1533675600,2018,21,0,219.875,219.875,69.1198,-25.015,1010.5,2.3,-999.0,yes,yes,no,300234065580660,BD2GI,AOML,DNR,North
2018-08-07T22:00:28Z,1533679229,2018,22,0,219.917,219.917,69.1192,-25.019,1009.9,2.06,-999.0,yes,yes,no,300234065580660,BD2GI,AOML,DNR,North
2018-08-07T22:59:31Z,1533682771,2018,23,0,219.958,219.958,69.1188,-25.021,1009.4,2.13,-999.0,yes,yes,no,300234065580660,BD2GI,AOML,DNR,North
2018-08-08T00:00:00Z,1533686400,2018,0,0,220.0,220.0,69.1188,-25.0216,1008.9,2.16,-999.0,yes,yes,no,300234065580660,BD2GI,AOML,DNR,North
2018-08-08T01:00:28Z,1533690029,2018,1,0,220.042,220.042,69.1198,-25.0222,1008.6,2.98,-999.0,yes,yes,no,300234065580660,BD2GI,AOML,DNR,North
2018-08-08T01:59:31Z,1533693571,2018,2,0,220.083,220.083,69.121,-25.0204,1008.2,2.47,-999.0,yes,yes,no,300234065580660,BD2GI,AOML,DNR,North
2018-08-08T03:00:00Z,1533697200,2018,3,0,220.125,220.125,69.1226,-25.0176,1007.8,2.33,-999.0,yes,yes,no,300234065580660,BD2GI,AOML,DNR,North
2018-08-08T04:00:28Z,1533700829,2018,4,0,220.167,220.167,69.1244,-25.0146,1007.6,1.48,-999.0,yes,yes,no,300234065580660,BD2GI,AOML,DNR,North
2018-08-08T04:59:31Z,1533704371,2018,5,0,220.208,220.208,69.1272,-25.0096,1007.0,1.1,-999.0,yes,yes,no,300234065580660,BD2GI,AOML,DNR,North
2018-08-08T06:00:00Z,1533708000,2018,6,0,220.25,220.25,69.1292,-25.0028,1006.6,1.71,-999.0,yes,yes,no,300234065580660,BD2GI,AOML,DNR,North
2018-08-08T07:00:28Z,1533711629,2018,7,0,220.292,220.292,69.1316,-24.9952,1006.5,1.48,-999.0,yes,yes,no,300234065580660,BD2GI,AOML,DNR,North
2018-08-08T07:59:31Z,1533715171,2018,8,0,220.333,220.333,69.1332,-24.9856,1006.5,2.06,-999.0,yes,yes,no,300234065580660,BD2GI,AOML,DNR,North
2018-08-08T09:00:00Z,1533718800,2018,9,0,220.375,220.375,69.1338,-24.9806,1006.5,2.36,-999.0,yes,yes,no,300234065580660,BD2GI,AOML,DNR,North
2018-08-08T10:00:28Z,1533722429,2018,10,0,220.417,220.417,69.133,-24.9818,1006.2,2.19,-999.0,yes,yes,no,300234065580660,BD2GI,AOML,DNR,North
2018-08-08T10:59:31Z,1533725971,2018,11,0,220.458,220.458,69.1326,-24.9866,1005.9,3.29,-999.0,yes,yes,no,300234065580660,BD2GI,AOML,DNR,North
2018-08-08T12:00:00Z,1533729600,2018,12,0,220.5,220.5,69.1314,-24.9914,1005.5,3.29,-999.0,yes,yes,no,300234065580660,BD2GI,AOML,DNR,North
2018-08-08T13:00:28Z,1533733229,2018,13,0,220.542,220.542,69.13,-24.9982,1005.4,-0.37,-999.0,yes,yes,no,300234065580660,BD2GI,AOML,DNR,North
2018-08-08T13:59:31Z,1533736771,2018,14,0,220.583,220.583,69.1294,-25.005,1005.1,2.33,-999.0,yes,yes,no,300234065580660,BD2GI,AOML,DNR,North
2018-08-08T15:00:00Z,1533740400,2018,15,0,220.625,220.625,69.1294,-25.008,1004.5,2.47,-999.0,yes,yes,no,300234065580660,BD2GI,AOML,DNR,North
2018-08-08T16:00:28Z,1533744029,2018,16,0,220.667,220.667,69.1294,-25.0086,1004.7,2.88,-999.0,yes,yes,no,300234065580660,BD2GI,AOML,DNR,North
2018-08-08T16:59:31Z,1533747571,2018,17,0,220.708,220.708,69.1292,-25.0092,1004.3,2.91,-999.0,yes,yes,no,300234065580660,BD2GI,AOML,DNR,North
2018-08-08T18:00:00Z,1533751200,2018,18,0,220.75,220.75,69.1292,-25.0106,1004.3,3.01,-999.0,yes,yes,no,300234065580660,BD2GI,AOML,DNR,North
2018-08-08T19:00:28Z,1533754829,2018,19,0,220.792,220.792,69.1294,-25.0102,1004.1,3.01,-999.0,yes,yes,no,300234065580660,BD2GI,AOML,DNR,North
2018-08-08T19:59:31Z,1533758371,2018,20,0,220.833,220.833,69.1304,-25.011,1004.2,2.95,-999.0,yes,yes,no,300234065580660,BD2GI,AOML,DNR,North
2018-08-08T21:00:00Z,1533762000,2018,21,0,220.875,220.875,69.131,-25.011,1004.2,2.88,-999.0,yes,yes,no,300234065580660,BD2GI,AOML,DNR,North
2018-08-08T22:00:28Z,1533765629,2018,22,0,220.917,220.917,69.131,-25.0104,1004.3,2.74,-999.0,yes,yes,no,300234065580660,BD2GI,AOML,DNR,North
2018-08-08T22:59:31Z,1533769171,2018,23,0,220.958,220.958,69.1302,-25.0116,1004.3,2.74,-999.0,yes,yes,no,300234065580660,BD2GI,AOML,DNR,North
2018-08-09T00:00:00Z,1533772800,2018,0,0,221.0,221.0,69.1294,-25.0158,1004.3,2.71,-999.0,yes,yes,no,300234065580660,BD2GI,AOML,DNR,North
2018-08-09T01:00:28Z,1533776429,2018,1,0,221.042,221.042,69.1292,-25.0202,1004.4,2.74,-999.0,yes,yes,no,300234065580660,BD2GI,AOML,DNR,North
2018-08-09T01:59:31Z,1533779971,2018,2,0,221.083,221.083,69.1296,-25.0252,1004.2,2.77,-999.0,yes,yes,no,300234065580660,BD2GI,AOML,DNR,North
2018-08-09T03:00:00Z,1533783600,2018,3,0,221.125,221.125,69.1304,-25.0306,1004.0,3.05,-999.0,yes,yes,no,300234065580660,BD2GI,AOML,DNR,North
2018-08-09T04:00:28Z,1533787229,2018,4,0,221.167,221.167,69.1314,-25.0324,1003.7,3.49,-999.0,yes,yes,no,300234065580660,BD2GI,AOML,DNR,North
2018-08-09T04:59:31Z,1533790771,2018,5,0,221.208,221.208,69.133,-25.0298,1003.6,3.36,-999.0,yes,yes,no,300234065580660,BD2GI,AOML,DNR,North
2018-08-09T06:00:00Z,1533794400,2018,6,0,221.25,221.25,69.1346,-25.0264,1003.8,2.95,-999.0,yes,yes,no,300234065580660,BD2GI,AOML,DNR,North
2018-08-09T07:00:28Z,1533798029,2018,7,0,221.292,221.292,69.1368,-25.0196,1003.8,2.88,-999.0,yes,yes,no,300234065580660,BD2GI,AOML,DNR,North
2018-08-09T07:59:31Z,1533801571,2018,8,0,221.333,221.333,69.138,-25.0108,1004.1,2.67,-999.0,yes,yes,no,300234065580660,BD2GI,AOML,DNR,North
2018-08-09T09:00:00Z,1533805200,2018,9,0,221.375,221.375,69.1394,-25.0032,1004.0,2.57,-999.0,yes,yes,no,300234065580660,BD2GI,AOML,DNR,North
2018-08-09T10:00:28Z,1533808829,2018,10,0,221.417,221.417,69.1412,-24.997,1003.8,2.67,-999.0,yes,yes,no,300234065580660,BD2GI,AOML,DNR,North
2018-08-09T10:59:31Z,1533812371,2018,11,0,221.458,221.458,69.1416,-24.9936,1003.9,2.98,-999.0,yes,yes,no,300234065580660,BD2GI,AOML,DNR,North
2018-08-09T12:00:00Z,1533816000,2018,12,0,221.5,221.5,69.1402,-24.995,1003.9,3.08,-999.0,yes,yes,no,300234065580660,BD2GI,AOML,DNR,North
2018-08-09T13:00:28Z,1533819629,2018,13,0,221.542,221.542,69.1388,-25.0052,1003.8,2.4,-999.0,yes,yes,no,300234065580660,BD2GI,AOML,DNR,North
2018-08-09T13:59:31Z,1533823171,2018,14,0,221.583,221.583,69.1378,-25.019,1004.0,2.47,-999.0,yes,yes,no,300234065580660,BD2GI,AOML,DNR,North
2018-08-09T15:00:00Z,1533826800,2018,15,0,221.625,221.625,69.1378,-25.0286,1004.0,2.81,-999.0,yes,yes,no,300234065580660,BD2GI,AOML,DNR,North
2018-08-09T16:00:28Z,1533830429,2018,16,0,221.667,221.667,69.1382,-25.0388,1003.8,2.71,-999.0,yes,yes,no,300234065580660,BD2GI,AOML,DNR,North
2018-08-09T16:59:31Z,1533833971,2018,17,0,221.708,221.708,69.14,-25.0444,1004.0,3.66,-999.0,yes,yes,no,300234065580660,BD2GI,AOML,DNR,North
2018-08-09T18:00:00Z,1533837600,2018,18,0,221.75,221.75,69.1416,-25.0426,1003.9,3.49,-999.0,yes,yes,no,300234065580660,BD2GI,AOML,DNR,North
2018-08-09T19:00:28Z,1533841229,2018,19,0,221.792,221.792,69.1422,-25.041,1004.0,3.36,-999.0,yes,yes,no,300234065580660,BD2GI,AOML,DNR,North
2018-08-09T19:59:31Z,1533844771,2018,20,0,221.833,221.833,69.1424,-25.035,1004.3,3.36,-999.0,yes,yes,no,300234065580660,BD2GI,AOML,DNR,North
2018-08-09T21:00:00Z,1533848400,2018,21,0,221.875,221.875,69.1434,-25.0264,1004.7,3.25,-999.0,yes,yes,no,300234065580660,BD2GI,AOML,DNR,North
2018-08-09T22:00:28Z,1533852029,2018,22,0,221.917,221.917,69.143,-25.0204,1004.8,2.77,-999.0,yes,yes,no,300234065580660,BD2GI,AOML,DNR,North
2018-08-09T22:59:31Z,1533855571,2018,23,0,221.958,221.958,69.143,-25.018,1005.1,2.5,-999.0,yes,yes,no,300234065580660,BD2GI,AOML,DNR,North
2018-08-10T00:00:00Z,1533859200,2018,0,0,222.0,222.0,69.1418,-25.016,1005.5,1.95,-999.0,yes,yes,no,300234065580660,BD2GI,AOML,DNR,North
2018-08-10T01:00:28Z,1533862829,2018,1,0,222.042,222.042,69.1406,-25.02,1005.9,1.95,-999.0,yes,yes,no,300234065580660,BD2GI,AOML,DNR,North
2018-08-10T01:59:31Z,1533866371,2018,2,0,222.083,222.083,69.1398,-25.0268,1006.1,2.09,-999.0,yes,yes,no,300234065580660,BD2GI,AOML,DNR,North
2018-08-10T03:00:00Z,1533870000,2018,3,0,222.125,222.125,69.1394,-25.0322,1006.2,2.67,-999.0,yes,yes,no,300234065580660,BD2GI,AOML,DNR,North
2018-08-10T04:00:28Z,1533873629,2018,4,0,222.167,222.167,69.1392,-25.038,1006.6,2.95,-999.0,yes,yes,no,300234065580660,BD2GI,AOML,DNR,North
2018-08-10T04:59:31Z,1533877171,2018,5,0,222.208,222.208,69.1394,-25.0388,1007.0,2.74,-999.0,yes,yes,no,300234065580660,BD2GI,AOML,DNR,North
2018-08-10T06:00:00Z,1533880800,2018,6,0,222.25,222.25,69.1398,-25.032,1007.5,2.54,-999.0,yes,yes,no,300234065580660,BD2GI,AOML,DNR,North
2018-08-10T07:00:28Z,1533884429,2018,7,0,222.292,222.292,69.14,-25.0224,1008.1,2.26,-999.0,yes,yes,no,300234065580660,BD2GI,AOML,DNR,North
2018-08-10T07:59:31Z,1533887971,2018,8,0,222.333,222.333,69.14,-25.0108,1008.9,2.5,-999.0,yes,yes,no,300234065580660,BD2GI,AOML,DNR,North
2018-08-10T09:00:00Z,1533891600,2018,9,0,222.375,222.375,69.1408,-24.9976,1009.5,2.91,-999.0,yes,yes,no,300234065580660,BD2GI,AOML,DNR,North
2018-08-10T10:00:28Z,1533895229,2018,10,0,222.417,222.417,69.1414,-24.9856,1010.1,3.08,-999.0,yes,yes,no,300234065580660,BD2GI,AOML,DNR,North
2018-08-10T10:59:31Z,1533898771,2018,11,0,222.458,222.458,69.1396,-24.9794,1010.4,1.92,-999.0,yes,yes,no,300234065580660,BD2GI,AOML,DNR,North
2018-08-10T12:00:00Z,1533902400,2018,12,0,222.5,222.5,69.1362,-24.9816,1010.6,2.16,-999.0,yes,yes,no,300234065580660,BD2GI,AOML,DNR,North
2018-08-10T13:00:28Z,1533906029,2018,13,0,222.542,222.542,69.1324,-24.9866,1011.0,2.67,-999.0,yes,yes,no,300234065580660,BD2GI,AOML,DNR,North
2018-08-10T13:59:31Z,1533909571,2018,14,0,222.583,222.583,69.1296,-24.993,1011.2,2.81,-999.0,yes,yes,no,300234065580660,BD2GI,AOML,DNR,North
2018-08-10T15:00:00Z,1533913200,2018,15,0,222.625,222.625,69.126,-25.0024,1011.4,2.98,-999.0,yes,yes,no,300234065580660,BD2GI,AOML,DNR,North
2018-08-10T16:00:28Z,1533916829,2018,16,0,222.667,222.667,69.1216,-25.0132,1011.2,3.05,-999.0,yes,yes,no,300234065580660,BD2GI,AOML,DNR,North
2018-08-10T16:59:31Z,1533920371,2018,17,0,222.708,222.708,69.1194,-25.0196,1011.2,3.15,-999.0,yes,yes,no,300234065580660,BD2GI,AOML,DNR,North
2018-08-10T18:00:00Z,1533924000,2018,18,0,222.75,222.75,69.115,-25.0244,1011.1,3.39,-999.0,yes,yes,no,300234065580660,BD2GI,AOML,DNR,North
2018-08-10T19:00:28Z,1533927629,2018,19,0,222.792,222.792,69.1106,-25.0282,1011.2,4.18,-999.0,yes,yes,no,300234065580660,BD2GI,AOML,DNR,North
2018-08-10T19:59:31Z,1533931171,2018,20,0,222.833,222.833,69.1058,-25.0282,1011.3,3.46,-999.0,yes,yes,no,300234065580660,BD2GI,AOML,DNR,North
2018-08-10T21:00:00Z,1533934800,2018,21,0,222.875,222.875,69.101,-25.0344,1011.6,3.56,-999.0,yes,yes,no,300234065580660,BD2GI,AOML,DNR,North
2018-08-10T22:00:28Z,1533938429,2018,22,0,222.917,222.917,69.0956,-25.0432,1011.9,3.63,-999.0,yes,yes,no,300234065580660,BD2GI,AOML,DNR,North
2018-08-10T22:59:31Z,1533941971,2018,23,0,222.958,222.958,69.093,-25.0542,1011.9,3.77,-999.0,yes,yes,no,300234065580660,BD2GI,AOML,DNR,North
2018-08-11T00:00:00Z,1533945600,2018,0,0,223.0,223.0,69.092,-25.0762,1011.9,3.87,-999.0,yes,yes,no,300234065580660,BD2GI,AOML,DNR,North
2018-08-11T01:00:28Z,1533949229,2018,1,0,223.042,223.042,69.0904,-25.0906,1011.9,3.49,-999.0,yes,yes,no,300234065580660,BD2GI,AOML,DNR,North
2018-08-11T01:59:31Z,1533952771,2018,2,0,223.083,223.083,69.0908,-25.1018,1011.8,3.53,-999.0,yes,yes,no,300234065580660,BD2GI,AOML,DNR,North
2018-08-11T03:00:00Z,1533956400,2018,3,0,223.125,223.125,69.0908,-25.1066,1011.8,3.46,-999.0,yes,yes,no,300234065580660,BD2GI,AOML,DNR,North
2018-08-11T04:00:28Z,1533960029,2018,4,0,223.167,223.167,69.0914,-25.1058,1011.7,3.49,-999.0,yes,yes,no,300234065580660,BD2GI,AOML,DNR,North
2018-08-11T04:59:31Z,1533963571,2018,5,0,223.208,223.208,69.092,-25.0984,1012.1,3.56,-999.0,yes,yes,no,300234065580660,BD2GI,AOML,DNR,North